Weather Roundup
Issued by NWS Springfield, MO

Home | Current Version | Previous Version | Text Only | Print | Product List | Glossary On
Versions: 1 2 3 4 5 6 7 8 9 10 11 12 13 14 15 16 17 18 19 20 21 22 23 24 25 26 27 28 29 30 31 32 33 34 35 36 37 38 39 40 41 42 43 44 45 46 47 48 49 50
000
NZUS99 KSGF 242007
HRRSGF

HOURLY WEATHER
NATIONAL WEATHER SERVICE SPRINGFIELD MO
300 PM CDT THU JUL 24 2014

......SGF CWA......

CITY           SKY/WX    TMP DP  RH WIND       PRES   REMARKS
SPRINGFIELD    SUNNY     82  55  39 E8        30.10F
JOPLIN         SUNNY     86  62  44 VRB5      30.07F
WEST PLAINS    SUNNY     81  56  42 N7        30.10F
ROLLA          MOSUNNY   81  50  33 N9G16     30.11F
OSAGE BEACH    SUNNY     82  54  36 NE10      30.10F
BRANSON        MOSUNNY   86  59  39 E12       30.11F

......SURROUNDING SGF CWA......

CITY           SKY/WX    TMP DP  RH WIND       PRES   REMARKS
CHANUTE        SUNNY     85  65  51 SE9       30.07F
PARSONS        SUNNY     87  67  51 S8        30.07F HX  90
COFFEYVILLE    SUNNY     86  65  49 E8        30.04F
EMPORIA        SUNNY     85  65  51 SE13      30.06F
GROVE OK       PTSUNNY   90  68  48 S7        30.06F HX  93
ROGERS AR      SUNNY     85  61  44 VRB3      30.09F
SILOAM SPRINGS MOSUNNY   82  66  57 S6        30.09F
HARRISON AR    SUNNY     80  63  55 SW5       30.11F
NEAR YELLVILLE SUNNY     82  61  47 NE3       30.09F

......KANSAS AND MISSOURI......

CITY           SKY/WX    TMP DP  RH WIND       PRES   REMARKS
KANSAS CTY INT PTSUNNY   82  60  47 S13       30.08F
DOWNTOWN KC    SUNNY     83  59  44 SE10G17   30.06F
COLUMBIA       PTSUNNY   81  57  43 NE9       30.12F
SEDALIA        MOSUNNY   82  57  42 E10       30.12F
ST JOSEPH      MOSUNNY   81  61  50 S18       30.05F
ST LOUIS       PTSUNNY   82  54  37 NE13      30.10F
SPIRIT OF STL  SUNNY     81  51  35 N9G18     30.09F
KIRKSVILLE     CLOUDY    76  60  57 SE8       30.11F
WICHITA        MOSUNNY   88  68  51 SE14G20   30.03F HX  91
TOPEKA         SUNNY     86  61  42 SE14      30.06F
OLATHE         SUNNY     80  58  46 SE8G16    30.08F

......TENNESSEE......

CITY           SKY/WX    TMP DP  RH WIND       PRES   REMARKS
MEMPHIS        SUNNY     82  60  47 N10       30.03F
NASHVILLE      MOSUNNY   82  65  56 VRB6      30.01F

......ARKANSAS.......

CITY           SKY/WX    TMP DP  RH WIND       PRES   REMARKS
FAYETTEVILLE   CLOUDY    82  69  64 VRB5      30.09F
FT SMITH       PTSUNNY   84  71  65 E7        30.05F
LITTLE ROCK    MOSUNNY   84  66  54 NE8       30.05F

......OKLAHOMA.......

CITY           SKY/WX    TMP DP  RH WIND       PRES   REMARKS
TULSA          MOSUNNY   88  71  57 SE7       30.02F HX  94
PONCA CITY     SUNNY     89  69  51 SE10      30.03F HX  93
MCALESTER      SUNNY     89  68  49 VRB5      30.04F HX  93
OKLAHOMA CITY  MOSUNNY   92  70  48 VRB5      30.04F HX  97

......IOWA............

CITY           SKY/WX    TMP DP  RH WIND       PRES   REMARKS
DES MOINES     CLOUDY    80  58  46 S10       30.08S
QUAD CITIES    MOSUNNY   77  56  48 SE8       30.10F

......ILLINOIS........

CITY           SKY/WX    TMP DP  RH WIND       PRES   REMARKS
QUINCY         MOSUNNY   77  55  46 SE8       30.11F
CHICAGO        MOSUNNY   75  44  33 NE12      30.12F



USA.gov is the U.S. government's official web portal to all federal, state and local government web resources and services.